| time (UTC) | temp C | wind direction | speed KPH | gust KPH | rain 1hr cm | rain 24hr cm | rain mn cm | humidity % | barometer mb |
| 20260505093104 | 15 | 244 | 1.6 | 3.2 | 0.00 | 0.00 | 0.00 | 79 | 1010.1 |
| 20260505092601 | 14 | 250 | 1.6 | 1.6 | 0.00 | 0.00 | 0.00 | 85 | 1010.1 |
| 20260505092100 | 15 | 235 | 0.0 | 1.6 | 0.00 | 0.00 | 0.00 | 83 | 1009.9 |
| 20260505091556 | 13 | 241 | 4.8 | 4.8 | 0.00 | 0.00 | 0.00 | 79 | 1010.0 |
| 20260505091055 | 13 | 224 | 1.6 | 1.6 | 0.00 | 0.00 | 0.00 | 88 | 1009.9 |
| 20260505090552 | 12 | 234 | 0.0 | 1.6 | 0.00 | 0.00 | 0.00 | 96 | 1010.0 |
| 20260505090050 | 11 | 234 | 0.0 | 1.6 | 0.00 | 0.00 | 0.00 | 97 | 1010.1 |
| 20260505085547 | 11 | 235 | 0.0 | 0.0 | 0.00 | 0.00 | 0.00 | 98 | 1009.9 |
| 20260505085046 | 11 | 222 | 1.6 | 1.6 | 0.00 | 0.00 | 0.00 | 98 | 1009.9 |
| 20260505084543 | 11 | 190 | 1.6 | 3.2 | 0.00 | 0.00 | 0.00 | 98 | 1010.0 |
| 20260505084041 | 11 | 240 | 0.0 | 0.0 | 0.00 | 0.00 | 0.00 | 98 | 1009.9 |
| 20260505083538 | 11 | 239 | 0.0 | 1.6 | 0.00 | 0.00 | 0.00 | 98 | 1010.0 |
| 20260505083035 | 11 | 240 | 1.6 | 1.6 | 0.00 | 0.00 | 0.00 | 98 | 1010.0 |
| 20260505082530 | 12 | 236 | 1.6 | 1.6 | 0.00 | 0.00 | 0.00 | 98 | 1009.9 |
| 20260505082027 | 12 | 239 | 1.6 | 1.6 | 0.00 | 0.00 | 0.00 | 97 | 1009.9 |
| 20260505081524 | 12 | 235 | 0.0 | 0.0 | 0.00 | 0.00 | 0.00 | 97 | 1009.9 |
| 20260505081021 | 12 | 205 | 6.4 | 6.4 | 0.00 | 0.00 | 0.00 | 97 | 1009.9 |
| 20260505080517 | 12 | 226 | 1.6 | 1.6 | 0.00 | 0.00 | 0.00 | 97 | 1009.9 |
| 20260505080014 | 12 | 236 | 0.0 | 0.0 | 0.00 | 0.00 | 0.00 | 96 | 1009.8 |
| 20260505075510 | 12 | 242 | 0.0 | 0.0 | 0.00 | 0.00 | 0.00 | 95 | 1009.7 |
| 20260505075007 | 12 | 233 | 0.0 | 0.0 | 0.00 | 0.00 | 0.00 | 95 | 1009.8 |
| 20260505074504 | 12 | 231 | 1.6 | 1.6 | 0.00 | 0.00 | 0.00 | 93 | 1009.7 |
| 20260505074001 | 12 | 244 | 0.0 | 0.0 | 0.00 | 0.00 | 0.00 | 93 | 1009.8 |
| 20260505073459 | 12 | 251 | 0.0 | 0.0 | 0.00 | 0.00 | 0.00 | 92 | 1010.2 |
| 20260505072956 | 12 | 251 | 0.0 | 0.0 | 0.00 | 0.00 | 0.00 | 92 | 1010.0 |
| 20260505072452 | 12 | 251 | 0.0 | 0.0 | 0.00 | 0.00 | 0.00 | 91 | 1010.2 |
| 20260505071948 | 12 | 242 | 1.6 | 1.6 | 0.00 | 0.00 | 0.00 | 92 | 1010.1 |
| 20260505071444 | 12 | 239 | 1.6 | 1.6 | 0.00 | 0.00 | 0.00 | 91 | 1010.1 |
| 20260505070942 | 12 | 233 | 0.0 | 0.0 | 0.00 | 0.00 | 0.00 | 91 | 1010.1 |
| 20260505070439 | 12 | 251 | 0.0 | 0.0 | 0.00 | 0.00 | 0.00 | 91 | 1010.0 |
| 20260505065935 | 11 | 253 | 1.6 | 1.6 | 0.00 | 0.00 | 0.00 | 91 | 1009.9 |
| 20260505065431 | 11 | 255 | 3.2 | 3.2 | 0.00 | 0.00 | 0.00 | 91 | 1009.7 |
| 20260505064928 | 11 | 249 | 1.6 | 1.6 | 0.00 | 0.00 | 0.00 | 91 | 1009.8 |
| 20260505064425 | 11 | 249 | 1.6 | 1.6 | 0.00 | 0.00 | 0.00 | 91 | 1009.5 |
| 20260505063923 | 12 | 245 | 0.0 | 0.0 | 0.00 | 0.00 | 0.00 | 90 | 1009.6 |
| 20260505063420 | 12 | 243 | 0.0 | 1.6 | 0.00 | 0.00 | 0.00 | 89 | 1009.4 |
| 20260505062916 | 12 | 246 | 1.6 | 1.6 | 0.00 | 0.00 | 0.00 | 90 | 1009.5 |
| 20260505062413 | 12 | 247 | 3.2 | 3.2 | 0.00 | 0.00 | 0.00 | 90 | 1009.5 |
| 20260505061910 | 12 | 237 | 1.6 | 1.6 | 0.00 | 0.00 | 0.00 | 90 | 1009.6 |
| 20260505061409 | 12 | 240 | 0.0 | 0.0 | 0.00 | 0.00 | 0.00 | 89 | 1009.6 |
| 20260505060906 | 12 | 238 | 0.0 | 0.0 | 0.00 | 0.00 | 0.00 | 87 | 1009.7 |
| 20260505060402 | 12 | 245 | 1.6 | 1.6 | 0.00 | 0.00 | 0.00 | 88 | 1009.6 |
| 20260505055858 | 12 | 252 | 4.8 | 4.8 | 0.00 | 0.00 | 0.00 | 86 | 1009.6 |
| 20260505055355 | 12 | 242 | 0.0 | 1.6 | 0.00 | 0.00 | 0.00 | 87 | 1009.7 |
| 20260505054851 | 12 | 242 | 1.6 | 3.2 | 0.00 | 0.00 | 0.00 | 87 | 1009.8 |
| 20260505054349 | 13 | 244 | 1.6 | 1.6 | 0.00 | 0.00 | 0.00 | 87 | 1009.7 |
| 20260505053847 | 12 | 229 | 0.0 | 1.6 | 0.00 | 0.00 | 0.00 | 87 | 1009.9 |
| 20260505053344 | 12 | 231 | 1.6 | 1.6 | 0.00 | 0.00 | 0.00 | 88 | 1009.8 |
| 20260505052841 | 13 | 244 | 0.0 | 0.0 | 0.00 | 0.00 | 0.00 | 87 | 1009.8 |
| 20260505052337 | 13 | 248 | 1.6 | 3.2 | 0.00 | 0.00 | 0.00 | 86 | 1010.0 |
| 20260505051835 | 12 | 228 | 0.0 | 1.6 | 0.00 | 0.00 | 0.00 | 89 | 1010.0 |
| 20260505051332 | 11 | 245 | 3.2 | 3.2 | 0.00 | 0.00 | 0.00 | 93 | 1009.9 |
| 20260505050830 | 11 | 237 | 0.0 | 0.0 | 0.00 | 0.00 | 0.00 | 94 | 1009.9 |
| 20260505050328 | 11 | 242 | 1.6 | 1.6 | 0.00 | 0.00 | 0.00 | 94 | 1009.9 |
| 20260505041758 | 9 | 248 | 0.0 | 0.0 | 0.00 | 0.00 | 0.00 | 97 | 1010.0 |
| 20260505041255 | 9 | 248 | 0.0 | 0.0 | 0.00 | 0.00 | 0.00 | 96 | 1009.9 |
| 20260505040752 | 9 | 249 | 1.6 | 1.6 | 0.00 | 0.00 | 0.00 | 96 | 1010.0 |
| 20260505040250 | 9 | 260 | 0.0 | 0.0 | 0.00 | 0.00 | 0.00 | 96 | 1009.8 |
| 20260505035747 | 9 | 263 | 1.6 | 1.6 | 0.00 | 0.00 | 0.00 | 96 | 1009.8 |
| 20260505035242 | 9 | 256 | 0.0 | 0.0 | 0.00 | 0.00 | 0.00 | 96 | 1009.8 |
| 20260505034739 | 9 | 256 | 1.6 | 1.6 | 0.00 | 0.00 | 0.00 | 95 | 1010.1 |
| 20260505034236 | 10 | 256 | 1.6 | 1.6 | 0.00 | 0.00 | 0.00 | 95 | 1009.9 |
| 20260505033733 | 10 | 256 | 0.0 | 1.6 | 0.00 | 0.00 | 0.00 | 95 | 1009.9 |
| 20260505033231 | 10 | 256 | 1.6 | 1.6 | 0.00 | 0.00 | 0.00 | 94 | 1009.8 |
| 20260505032728 | 10 | 256 | 0.0 | 0.0 | 0.00 | 0.00 | 0.00 | 94 | 1009.9 |
| 20260505032224 | 10 | 256 | 0.0 | 1.6 | 0.00 | 0.00 | 0.00 | 93 | 1010.0 |
| 20260505031722 | 10 | 256 | 1.6 | 1.6 | 0.00 | 0.00 | 0.00 | 93 | 1010.0 |
| 20260505031218 | 11 | 256 | 1.6 | 1.6 | 0.00 | 0.00 | 0.00 | 93 | 1010.1 |
| 20260505030715 | 11 | 256 | 0.0 | 1.6 | 0.00 | 0.00 | 0.00 | 92 | 1010.3 |
| 20260505030211 | 11 | 257 | 1.6 | 3.2 | 0.00 | 0.00 | 0.00 | 92 | 1010.2 |
| 20260505025707 | 11 | 256 | 1.6 | 1.6 | 0.00 | 0.00 | 0.00 | 92 | 1010.0 |
| 20260505025206 | 11 | 256 | 1.6 | 1.6 | 0.00 | 0.00 | 0.00 | 92 | 1010.1 |
| 20260505024703 | 11 | 256 | 1.6 | 1.6 | 0.00 | 0.00 | 0.00 | 91 | 1010.1 |
| 20260505024200 | 11 | 256 | 0.0 | 1.6 | 0.00 | 0.00 | 0.00 | 91 | 1010.1 |
| 20260505023657 | 11 | 256 | 0.0 | 0.0 | 0.00 | 0.00 | 0.00 | 90 | 1010.0 |
| 20260505023155 | 11 | 262 | 1.6 | 3.2 | 0.00 | 0.00 | 0.00 | 90 | 1010.0 |
| 20260505022652 | 11 | 252 | 0.0 | 1.6 | 0.00 | 0.00 | 0.00 | 89 | 1010.1 |
| 20260505022149 | 11 | 253 | 1.6 | 3.2 | 0.00 | 0.00 | 0.00 | 89 | 1010.0 |
| 20260505021645 | 11 | 252 | 0.0 | 0.0 | 0.00 | 0.00 | 0.00 | 88 | 1009.9 |
| 20260505021143 | 12 | 253 | 1.6 | 1.6 | 0.00 | 0.00 | 0.00 | 87 | 1010.0 |
| 20260505020638 | 12 | 253 | 1.6 | 1.6 | 0.00 | 0.00 | 0.00 | 86 | 1010.0 |
| 20260505020134 | 12 | 249 | 3.2 | 3.2 | 0.00 | 0.00 | 0.00 | 85 | 1010.2 |
| 20260505015631 | 12 | 241 | 0.0 | 0.0 | 0.00 | 0.00 | 0.00 | 85 | 1010.2 |
| 20260505015128 | 13 | 240 | 0.0 | 0.0 | 0.00 | 0.00 | 0.00 | 85 | 1010.1 |
| 20260505014625 | 13 | 240 | 0.0 | 0.0 | 0.00 | 0.00 | 0.00 | 85 | 1010.1 |
| 20260505014122 | 13 | 240 | 0.0 | 0.0 | 0.00 | 0.00 | 0.00 | 83 | 1010.3 |
| 20260505013619 | 13 | 237 | 0.0 | 0.0 | 0.00 | 0.00 | 0.00 | 83 | 1010.0 |
| 20260505013116 | 13 | 256 | 0.0 | 1.6 | 0.00 | 0.00 | 0.00 | 82 | 1010.1 |
| 20260505012615 | 13 | 256 | 1.6 | 1.6 | 0.00 | 0.00 | 0.00 | 83 | 1010.0 |
| 20260505012111 | 13 | 256 | 0.0 | 0.0 | 0.00 | 0.00 | 0.00 | 82 | 1010.1 |
| 20260505011607 | 13 | 257 | 0.0 | 1.6 | 0.00 | 0.00 | 0.00 | 81 | 1010.1 |
| 20260505011104 | 14 | 258 | 0.0 | 0.0 | 0.00 | 0.00 | 0.00 | 79 | 1010.1 |
| 20260505010559 | 15 | 251 | 0.0 | 0.0 | 0.00 | 0.00 | 0.00 | 79 | 1010.3 |
| 20260505010056 | 15 | 255 | 1.6 | 1.6 | 0.00 | 0.00 | 0.00 | 76 | 1010.1 |
| 20260505005552 | 15 | 250 | 1.6 | 1.6 | 0.00 | 0.00 | 0.00 | 74 | 1010.0 |
| 20260505005050 | 16 | 259 | 4.8 | 4.8 | 0.00 | 0.00 | 0.00 | 73 | 1009.8 |
| 20260505004546 | 17 | 241 | 0.0 | 0.0 | 0.00 | 0.00 | 0.00 | 68 | 1009.7 |
| 20260505004043 | 17 | 228 | 1.6 | 1.6 | 0.00 | 0.00 | 0.00 | 67 | 1009.8 |
| 20260505003540 | 17 | 228 | 0.0 | 0.0 | 0.00 | 0.00 | 0.00 | 66 | 1009.6 |
| 20260505003038 | 17 | 244 | 0.0 | 0.0 | 0.00 | 0.00 | 0.00 | 65 | 1009.7 |
| 20260505002537 | 18 | 211 | 1.6 | 3.2 | 0.00 | 0.00 | 0.00 | 61 | 1009.6 |
| 20260505002032 | 19 | 239 | 3.2 | 3.2 | 0.00 | 0.00 | 0.00 | 57 | 1009.5 |
| 20260505001529 | 19 | 231 | 3.2 | 3.2 | 0.00 | 0.00 | 0.00 | 59 | 1009.3 |
| 20260505001026 | 19 | 237 | 3.2 | 3.2 | 0.00 | 0.00 | 0.00 | 56 | 1009.5 |
| 20260505000523 | 19 | 208 | 3.2 | 3.2 | 0.00 | 0.00 | 0.00 | 55 | 1009.5 |
| 20260505000021 | 20 | 226 | 1.6 | 1.6 | 0.00 | 0.00 | 0.00 | 58 | 1009.6 |
| 20260504235517 | 19 | 239 | 1.6 | 1.6 | 0.00 | 0.00 | 0.00 | 57 | 1009.6 |
| 20260504235013 | 20 | 213 | 3.2 | 3.2 | 0.00 | 0.00 | 0.00 | 58 | 1009.5 |
| 20260504234511 | 20 | 216 | 1.6 | 3.2 | 0.00 | 0.00 | 0.00 | 57 | 1009.4 |
| 20260504234008 | 20 | 238 | 0.0 | 1.6 | 0.00 | 0.00 | 0.00 | 55 | 1009.4 |
| 20260504233503 | 20 | 210 | 4.8 | 4.8 | 0.00 | 0.00 | 0.00 | 57 | 1009.3 |
| 20260504233000 | 20 | 244 | 0.0 | 1.6 | 0.00 | 0.00 | 0.00 | 56 | 1009.7 |
| 20260504232457 | 20 | 218 | 3.2 | 4.8 | 0.00 | 0.00 | 0.00 | 56 | 1009.3 |
| 20260504231955 | 20 | 193 | 3.2 | 4.8 | 0.00 | 0.00 | 0.00 | 54 | 1009.2 |
| 20260504231451 | 20 | 220 | 3.2 | 4.8 | 0.00 | 0.00 | 0.00 | 54 | 1009.5 |
| 20260504230947 | 20 | 115 | 4.8 | 9.7 | 0.00 | 0.00 | 0.00 | 53 | 1009.6 |
| 20260504230444 | 20 | 135 | 8.0 | 11.3 | 0.00 | 0.00 | 0.00 | 53 | 1009.7 |
| 20260504225943 | 20 | 226 | 1.6 | 1.6 | 0.00 | 0.00 | 0.00 | 53 | 1010.0 |
| 20260504225439 | 20 | 198 | 4.8 | 4.8 | 0.00 | 0.00 | 0.00 | 52 | 1009.8 |
| 20260504224936 | 20 | 244 | 1.6 | 1.6 | 0.00 | 0.00 | 0.00 | 52 | 1009.8 |
| 20260504224433 | 20 | 227 | 3.2 | 3.2 | 0.00 | 0.00 | 0.00 | 53 | 1009.6 |
| 20260504223930 | 21 | 154 | 6.4 | 9.7 | 0.00 | 0.00 | 0.00 | 52 | 1009.8 |
| 20260504223426 | 21 | 172 | 9.7 | 9.7 | 0.00 | 0.00 | 0.00 | 51 | 1009.7 |
| 20260504222922 | 21 | 145 | 9.7 | 12.9 | 0.00 | 0.00 | 0.00 | 50 | 1009.9 |
| 20260504222420 | 21 | 200 | 9.7 | 14.5 | 0.00 | 0.00 | 0.00 | 50 | 1009.7 |
| 20260504221917 | 21 | 158 | 3.2 | 4.8 | 0.00 | 0.00 | 0.00 | 50 | 1010.0 |
| 20260504221414 | 21 | 149 | 8.0 | 9.7 | 0.00 | 0.00 | 0.00 | 51 | 1009.9 |
| 20260504220911 | 21 | 235 | 4.8 | 6.4 | 0.00 | 0.00 | 0.00 | 50 | 1009.8 |
| 20260504220408 | 21 | 255 | 1.6 | 3.2 | 0.00 | 0.00 | 0.00 | 50 | 1009.9 |
| 20260504215905 | 21 | 101 | 9.7 | 12.9 | 0.00 | 0.00 | 0.00 | 51 | 1009.8 |
| 20260504215401 | 22 | 209 | 3.2 | 6.4 | 0.00 | 0.00 | 0.00 | 49 | 1009.7 |
| 20260504214857 | 22 | 175 | 9.7 | 14.5 | 0.00 | 0.00 | 0.00 | 47 | 1009.7 |
| 20260504214354 | 22 | 219 | 8.0 | 9.7 | 0.00 | 0.00 | 0.00 | 48 | 1009.5 |
| 20260504213851 | 22 | 223 | 8.0 | 11.3 | 0.00 | 0.00 | 0.00 | 47 | 1009.5 |
| 20260504213347 | 22 | 201 | 12.9 | 14.5 | 0.00 | 0.00 | 0.00 | 47 | 1009.3 |
| 20260504212844 | 23 | 111 | 9.7 | 11.3 | 0.00 | 0.00 | 0.00 | 46 | 1009.4 |
| 20260504212340 | 23 | 216 | 4.8 | 6.4 | 0.00 | 0.00 | 0.00 | 46 | 1009.3 |
| 20260504211838 | 22 | 200 | 8.0 | 9.7 | 0.00 | 0.00 | 0.00 | 46 | 1009.3 |
| 20260504211334 | 22 | 140 | 8.0 | 12.9 | 0.00 | 0.00 | 0.00 | 47 | 1009.3 |
| 20260504210832 | 22 | 205 | 4.8 | 6.4 | 0.00 | 0.00 | 0.00 | 48 | 1009.3 |
| 20260504210329 | 22 | 220 | 9.7 | 11.3 | 0.00 | 0.00 | 0.00 | 46 | 1009.5 |
| 20260504205826 | 22 | 96 | 9.7 | 11.3 | 0.00 | 0.00 | 0.00 | 47 | 1009.3 |
| 20260504205323 | 22 | 137 | 6.4 | 9.7 | 0.00 | 0.00 | 0.00 | 47 | 1009.2 |
| 20260504204821 | 22 | 158 | 8.0 | 12.9 | 0.00 | 0.00 | 0.00 | 49 | 1009.3 |
| 20260504204320 | 22 | 205 | 3.2 | 3.2 | 0.00 | 0.00 | 0.00 | 48 | 1009.4 |
| 20260504203819 | 22 | 222 | 6.4 | 11.3 | 0.00 | 0.00 | 0.00 | 46 | 1009.5 |
| 20260504203315 | 21 | 148 | 8.0 | 9.7 | 0.00 | 0.00 | 0.00 | 51 | 1009.6 |
| 20260504202810 | 22 | 125 | 3.2 | 4.8 | 0.00 | 0.00 | 0.00 | 50 | 1009.6 |
| 20260504202308 | 23 | 214 | 1.6 | 1.6 | 0.00 | 0.00 | 0.00 | 49 | 1009.6 |
| 20260504201805 | 23 | 230 | 0.0 | 1.6 | 0.00 | 0.00 | 0.00 | 44 | 1009.4 |
| 20260504201302 | 22 | 246 | 6.4 | 11.3 | 0.00 | 0.00 | 0.00 | 46 | 1009.7 |
| 20260504200800 | 22 | 154 | 9.7 | 14.5 | 0.00 | 0.00 | 0.00 | 48 | 1009.6 |
| 20260504200256 | 22 | 260 | 6.4 | 11.3 | 0.00 | 0.00 | 0.00 | 46 | 1009.6 |
| 20260504195752 | 21 | 159 | 11.3 | 14.5 | 0.00 | 0.00 | 0.00 | 47 | 1009.4 |
| 20260504195248 | 22 | 195 | 3.2 | 3.2 | 0.00 | 0.00 | 0.00 | 48 | 1009.7 |
| 20260504194745 | 22 | 181 | 4.8 | 4.8 | 0.00 | 0.00 | 0.00 | 46 | 1009.6 |
| 20260504194241 | 22 | 171 | 9.7 | 14.5 | 0.00 | 0.00 | 0.00 | 46 | 1009.6 |
| 20260504193738 | 23 | 234 | 1.6 | 3.2 | 0.00 | 0.00 | 0.00 | 44 | 1009.5 |
| 20260504193235 | 22 | 187 | 3.2 | 3.2 | 0.00 | 0.00 | 0.00 | 47 | 1009.8 |
| 20260504192733 | 21 | 235 | 1.6 | 1.6 | 0.00 | 0.00 | 0.00 | 48 | 1009.9 |
| 20260504192231 | 21 | 248 | 4.8 | 6.4 | 0.00 | 0.00 | 0.00 | 49 | 1009.7 |
| 20260504191730 | 21 | 138 | 11.3 | 20.9 | 0.00 | 0.00 | 0.00 | 50 | 1009.9 |
| 20260504191226 | 22 | 83 | 11.3 | 16.1 | 0.00 | 0.00 | 0.00 | 50 | 1009.9 |
| 20260504190721 | 21 | 232 | 0.0 | 1.6 | 0.00 | 0.00 | 0.00 | 53 | 1009.7 |
| 20260504190218 | 21 | 226 | 3.2 | 4.8 | 0.00 | 0.00 | 0.00 | 52 | 1009.9 |
| 20260504185715 | 21 | 196 | 9.7 | 12.9 | 0.00 | 0.00 | 0.00 | 53 | 1009.9 |
| 20260504185212 | 22 | 151 | 9.7 | 12.9 | 0.00 | 0.00 | 0.00 | 48 | 1009.8 |
| 20260504184708 | 21 | 221 | 6.4 | 9.7 | 0.00 | 0.00 | 0.00 | 51 | 1009.9 |
| 20260504184203 | 21 | 155 | 8.0 | 9.7 | 0.00 | 0.00 | 0.00 | 47 | 1010.2 |
| 20260504183700 | 21 | 207 | 4.8 | 6.4 | 0.00 | 0.00 | 0.00 | 52 | 1010.2 |
| 20260504183157 | 21 | 195 | 6.4 | 12.9 | 0.00 | 0.00 | 0.00 | 50 | 1010.3 |
| 20260504182655 | 21 | 248 | 8.0 | 11.3 | 0.00 | 0.00 | 0.00 | 50 | 1010.5 |
| 20260504182152 | 21 | 260 | 9.7 | 14.5 | 0.00 | 0.00 | 0.00 | 48 | 1010.3 |
| 20260504181649 | 21 | 131 | 12.9 | 16.1 | 0.00 | 0.00 | 0.00 | 49 | 1010.4 |
| 20260504181147 | 21 | 226 | 6.4 | 6.4 | 0.00 | 0.00 | 0.00 | 50 | 1010.6 |
| 20260504180646 | 21 | 240 | 3.2 | 4.8 | 0.00 | 0.00 | 0.00 | 48 | 1010.5 |
| 20260504180144 | 21 | 154 | 8.0 | 11.3 | 0.00 | 0.00 | 0.00 | 48 | 1010.6 |
| 20260504175641 | 21 | 220 | 4.8 | 6.4 | 0.00 | 0.00 | 0.00 | 56 | 1010.5 |
| 20260504175137 | 21 | 258 | 4.8 | 6.4 | 0.00 | 0.00 | 0.00 | 48 | 1010.7 |
| 20260504174636 | 21 | 220 | 3.2 | 4.8 | 0.00 | 0.00 | 0.00 | 47 | 1010.9 |
| 20260504174132 | 20 | 187 | 4.8 | 6.4 | 0.00 | 0.00 | 0.00 | 50 | 1010.9 |
| 20260504173629 | 20 | 186 | 9.7 | 12.9 | 0.00 | 0.00 | 0.00 | 49 | 1010.9 |
| 20260504173127 | 21 | 224 | 8.0 | 9.7 | 0.00 | 0.00 | 0.00 | 52 | 1010.7 |
| 20260504172623 | 21 | 187 | 6.4 | 6.4 | 0.00 | 0.00 | 0.00 | 49 | 1010.6 |
| 20260504172120 | 21 | 150 | 6.4 | 6.4 | 0.00 | 0.00 | 0.00 | 47 | 1010.5 |
| 20260504171616 | 21 | 227 | 9.7 | 14.5 | 0.00 | 0.00 | 0.00 | 47 | 1011.1 |
| 20260504171114 | 21 | 236 | 4.8 | 6.4 | 0.00 | 0.00 | 0.00 | 48 | 1011.1 |
| 20260504170609 | 20 | 219 | 9.7 | 14.5 | 0.00 | 0.00 | 0.00 | 50 | 1011.1 |
| 20260504170107 | 20 | 212 | 6.4 | 9.7 | 0.00 | 0.00 | 0.00 | 50 | 1011.3 |
| 20260504150953 | 18 | 227 | 4.8 | 4.8 | 0.00 | 0.00 | 0.00 | 49 | 1012.8 |
| 20260504150450 | 17 | 219 | 3.2 | 3.2 | 0.00 | 0.00 | 0.00 | 50 | 1012.9 |
| 20260504140916 | 16 | 191 | 12.9 | 14.5 | 0.00 | 0.00 | 0.00 | 50 | 1012.9 |
| 20260504140412 | 17 | 158 | 9.7 | 14.5 | 0.00 | 0.00 | 0.00 | 50 | 1013.1 |
| 20260504130337 | 13 | 181 | 6.4 | 12.9 | 0.00 | 0.00 | 0.00 | 59 | 1013.2 |
| 20260504120300 | 10 | 221 | 0.0 | 1.6 | 0.00 | 0.00 | 0.00 | 68 | 1013.0 |
| 20260504110224 | 6 | 235 | 0.0 | 0.0 | 0.00 | 0.00 | 0.00 | 89 | 1013.4 |
| 20260504100148 | 6 | 245 | 0.0 | 0.0 | 0.00 | 0.00 | 0.00 | 92 | 1013.7 |